Location: PSU-Greenbush Astrophysical Observatory
(37.5140°N, 94.9880°W)
Time: 00:47:14
(UTC-06:00)

deb Explorer IX - Pass Details

Date: 30 January 2020
Orbit: 549 x 1099 km, 38.8° (Epoch: 20 February)

Event Time Altitude Azimuth Distance (km) Brightness Sun altitude
Rises 23:35:20 0° 283° (WNW) 3,763 - -66.3°
Reaches altitude 10° 23:37:57 10° 282° (WNW) 2,861 - -66.6°
Maximum altitude 23:45:05 81° 197° (SSW) 1,108 - -67.4°
Drops below altitude 10° 23:52:23 10° 111° (ESE) 2,927 - -68.1°
Sets 23:55:05 0° 110° (ESE) 3,853 - -68.3°
